Weather past 2 weeks in Philipsburg, Netherlands Antilles, Sint Maarten

Now
79 °F

Sprinkles. Passing clouds.


Feels Like: 82 °F
Forecast: 76 / 81 °F
Wind: 8 mph from Northeast

Location: Juliana Airport - Saint Maarten

Current Time: Jan 31, 2015 at 8:30:28 PM

Latest Report: Jan 31, 2015 at 8:00 PM


Visibility: N/A

Pressure: 30.01 "Hg

Humidity: 79%

Dew point: 72 °F

Location of PhilipsburgLocation

Historic Weather in Philipsburg — Graph

°F

Philipsburg temperature yesterday

Maximum temperature yesterday: 84 °F (at 12:00 PM)
Minimum temperature yesterday: 75 °F (at 6:00 AM)
Average temperature yesterday: 79 °F

Past Weeks' High & Low Weather Summary

 TemperatureHumidityPressure
High84 °F (Jan 17, 2:00 PM)94% (Jan 18, 7:00 AM)30.07 "Hg (Jan 18, 7:00 AM)
Low73 °F (Jan 18, 5:00 AM)58% (Jan 29, 1:00 PM)29.95 "Hg (Jan 17, 5:00 AM)
Average79 °F74%30.00 "Hg
* Reported Jan 16 7:00 PM — Jan 31 7:00 PM, Philipsburg, Weather by CustomWeather, © 2014

Note: Actual official high and low records may vary slightly from our data, if they occured in-between our weather recording intervals... More about our weather records

Advertising

Philipsburg weather history for previous 24 hours

 ConditionsComfort  
Time TempWeatherWind HumidityBarometerVisibility
7:00 PM
Jan 31
79 °FPassing clouds.8 mph74%30.01 "HgN/A
6:00 PM79 °FScattered clouds.8 mph74%29.98 "HgN/A
5:00 PM81 °FScattered clouds.10 mph70%29.98 "HgN/A
4:00 PM82 °FScattered clouds.10 mph66%29.98 "HgN/A
3:00 PM81 °FScattered clouds.8 mph70%29.98 "HgN/A
2:00 PM82 °FTornado. Scattered clouds.5 mph66%29.98 "HgN/A
1:00 PM84 °FScattered clouds.8 mph62%30.01 "HgN/A
12:00 PM82 °FScattered clouds.7 mph66%30.01 "HgN/A
11:00 AM82 °FScattered clouds.5 mph66%30.01 "HgN/A
10:00 AM79 °FSprinkles. Scattered clouds.5 mph74%30.04 "HgN/A
9:00 AM81 °FPassing clouds.6 mph74%30.04 "HgN/A
8:00 AM79 °FWarm.2 mph79%30.01 "HgN/A
7:00 AM75 °FSprinkles. Scattered clouds.2 mph89%29.98 "HgN/A
6:00 AM75 °FMild.8 mph83%29.98 "Hg0 mi
5:00 AM75 °FPassing clouds.3 mph83%29.95 "HgN/A
2:00 AM75 °FPassing clouds.3 mph83%29.98 "HgN/A
1:00 AM77 °FPassing clouds.5 mph79%29.98 "HgN/A
12:00 AM77 °FPassing clouds.5 mph79%29.98 "HgN/A
11:00 PM
Jan 30
77 °FPassing clouds.7 mph79%29.98 "HgN/A
10:00 PM77 °FPassing clouds.7 mph79%30.01 "HgN/A
9:00 PM77 °FPassing clouds.7 mph79%30.01 "HgN/A
8:00 PM77 °FPassing clouds.3 mph79%29.98 "HgN/A
Weather by CustomWeather, © 2014

See weather overviewHow to use our weather pages